Location: Innsbruck
(47.2657°N, 11.3914°E)
Time: 21:11:40
(UTC+02:00)

N. Korean satellite - Pass Details

Date: 22 September 2021
Orbit: 450 x 495 km, 97.3° (Epoch: 16 October)

Event Time Altitude Azimuth Distance (km) Brightness Sun altitude
Rises 05:21:19 0° 35° (NE) 2,516 11.1 -17.4°
Reaches altitude 10° 05:24:55 10° 74° (ENE) 1,644 10.6 -16.8°
Maximum altitude 05:25:49 11° 89° (E) 1,598 10.3 -16.7°
Drops below altitude 10° 05:26:44 10° 104° (ESE) 1,647 10.1 -16.5°
Sets 05:30:20 0° 143° (SE) 2,532 10.5 -16.0°
